TimeMDT,TemperatureF,Dew PointF,Humidity,Sea Level PressureIn,VisibilityMPH,Wind Direction,Wind SpeedMPH,Gust SpeedMPH,PrecipitationIn,Events,Conditions,WindDirDegrees,DateUTC
12:53 AM,17.1,5.0,59,30.27,10.0,East,8.1,-,N/A,,Clear,90,2013-03-26 06:53:00
1:53 AM,15.1,5.0,64,30.25,10.0,East,8.1,-,N/A,,Clear,100,2013-03-26 07:53:00
2:53 AM,16.0,7.0,68,30.22,10.0,East,10.4,-,N/A,,Clear,100,2013-03-26 08:53:00
3:53 AM,16.0,7.0,68,30.19,10.0,East,8.1,-,N/A,,Clear,90,2013-03-26 09:53:00
4:53 AM,15.1,5.0,64,30.17,10.0,East,5.8,-,N/A,,Clear,100,2013-03-26 10:53:00
5:53 AM,15.1,7.0,70,30.16,10.0,East,9.2,-,N/A,,Clear,80,2013-03-26 11:53:00
6:53 AM,18.0,8.1,65,30.16,10.0,East,9.2,-,N/A,,Clear,80,2013-03-26 12:53:00
7:53 AM,25.0,9.0,51,30.17,10.0,East,8.1,-,N/A,,Clear,100,2013-03-26 13:53:00
8:53 AM,30.0,10.9,45,30.14,10.0,SE,6.9,-,N/A,,Clear,140,2013-03-26 14:53:00
9:53 AM,35.1,12.0,39,30.12,10.0,SE,6.9,-,N/A,,Clear,140,2013-03-26 15:53:00
10:53 AM,41.0,14.0,33,30.09,10.0,SE,5.8,-,N/A,,Clear,130,2013-03-26 16:53:00
11:53 AM,46.9,15.1,28,30.05,10.0,ESE,4.6,-,N/A,,Clear,110,2013-03-26 17:53:00
12:53 PM,51.1,14.0,23,30.02,10.0,Variable,6.9,-,N/A,,Clear,0,2013-03-26 18:53:00
1:53 PM,55.0,16.0,22,29.99,10.0,NW,10.4,-,N/A,,Clear,320,2013-03-26 19:53:00
2:53 PM,55.0,15.1,21,29.96,10.0,West,3.5,-,N/A,,Clear,280,2013-03-26 20:53:00
3:53 PM,55.9,16.0,21,29.96,10.0,NW,8.1,-,N/A,,Scattered Clouds,320,2013-03-26 21:53:00
4:53 PM,54.0,14.0,21,29.96,10.0,North,8.1,-,N/A,,Overcast,360,2013-03-26 22:53:00
5:53 PM,53.1,12.9,20,29.99,10.0,NNW,8.1,-,N/A,,Overcast,340,2013-03-26 23:53:00
6:53 PM,50.0,18.0,28,30.01,10.0,North,9.2,-,N/A,,Overcast,10,2013-03-27 00:53:00
7:53 PM,46.9,17.1,30,30.01,10.0,NNE,4.6,-,N/A,,Overcast,20,2013-03-27 01:53:00
8:53 PM,45.0,15.1,30,30.02,10.0,North,4.6,-,N/A,,Overcast,10,2013-03-27 02:53:00
9:53 PM,43.0,15.1,32,30.04,10.0,NNW,3.5,-,N/A,,Overcast,330,2013-03-27 03:53:00
10:53 PM,43.0,24.1,47,30.02,10.0,WNW,4.6,-,N/A,,Overcast,300,2013-03-27 04:53:00
11:53 PM,39.9,25.0,55,30.01,10.0,WSW,4.6,-,N/A,,Overcast,240,2013-03-27 05:53:00